Weather History for Rhinelander, WI

Change the Weather History Date:

Thursday, March 6, 2014

  Actual Average Record
Temperature  
Mean Temperature 10 °F 23 °F  
Max Temperature 25 °F 33 °F 66 °F (2000)
Min Temperature -6 °F 13 °F -26 °F (1917)
Degree Days  
Heating Degree Days 55 42  
Month to date heating degree days 382 259  
Since 1 July heating degree days 8011 6881  
Cooling Degree Days 0 0  
Month to date cooling degree days 0 0  
Year to date cooling degree days 0 0  
Moisture  
Dew Point 7 °F    
Average Humidity 75    
Maximum Humidity 95    
Minimum Humidity 55    
Precipitation  
Precipitation T in 0.04 in 0.62 in (1961)
Month to date precipitation 0.06 0.26  
Year to date precipitation 2.67 2.30  
Snow  
Snow T in - 8.00 in (1959)
Month to date snowfall 1.5  
Since 1 July snowfall 74.0  
Snow Depth 26.00 in    
Sea Level Pressure  
Sea Level Pressure 30.22 in    
Wind  
Wind Speed 9 mph (South)    
Max Wind Speed 20 mph    
Max Gust Speed 26 mph    
Visibility 8 miles    
Events Snow    
T = Trace of Precipitation, MM = Missing Value Source: NWS Daily Summary

Daily Weather History Graph

Daily Weather History Graph

Search for Another Location

Airport:

Trip Planner

Search our weather history database for the weather conditions in past years. The results will help you decide how hot, cold, wet, or windy it might be!

Date:

Astronomy

Mar. 06, 2014 Rise Set
Actual Time 6:27 AM CST 5:51 PM CST
Civil Twilight 5:57 AM CST 6:21 PM CST
Nautical Twilight 5:23 AM CST 6:55 PM CST
Astronomical Twilight 4:48 AM CST 7:30 PM CST
Moon 9:18 AM CST (3/6) No Moon Set
Length of Visible Light 12h 23m
Length of Day
11h 24m
Waxing Crescent, 32% of the Moon is Illuminated
Mar 6
Waxing Crescent
Mar 8
First Quarter
Mar 16
Full
Mar 23
Last Quarter
Mar 30
New

Hourly Weather History & Observations

Time (CST) Temp. Windchill Dew Point Humidity Pressure Visibility Wind Dir Wind Speed Gust Speed Precip Events Conditions
12:53 AM -2.9 °F - -11.0 °F 68% 30.48 in 10.0 mi Calm Calm - N/A   Clear
1:53 AM -0.0 °F -9.9 °F -5.1 °F 79% 30.45 in 10.0 mi South 4.6 mph - N/A   Clear
2:53 AM 1.0 °F -6.7 °F -2.0 °F 87% 30.45 in 10.0 mi South 3.5 mph - N/A   Clear
3:53 AM 1.0 °F -6.7 °F -0.9 °F 91% 30.43 in 10.0 mi SE 3.5 mph - N/A   Clear
4:53 AM 3.0 °F -10.5 °F -0.0 °F 87% 30.40 in 10.0 mi SSE 8.1 mph - N/A   Clear
5:53 AM 3.9 °F -9.4 °F 1.0 °F 88% 30.39 in 10.0 mi South 8.1 mph - N/A   Clear
6:53 AM 5.0 °F -5.6 °F 1.9 °F 87% 30.38 in 10.0 mi South 5.8 mph - N/A   Mostly Cloudy
7:07 AM 6.1 °F -4.3 °F 3.0 °F 87% 30.26 in 5.0 mi SSE 5.8 mph - N/A   Overcast
7:15 AM 6.1 °F -4.3 °F 3.0 °F 87% 30.26 in 2.5 mi South 5.8 mph - 0.00 in Snow Light Snow
7:40 AM 8.1 °F -2.0 °F 5.0 °F 87% 30.25 in 1.8 mi South 5.8 mph - 0.00 in Snow Light Snow
7:49 AM 8.6 °F -3.7 °F 6.8 °F 92% 30.25 in 2.0 mi South 8.1 mph - 0.00 in Snow Light Snow
7:53 AM 9.0 °F -2.2 °F 6.1 °F 88% 30.36 in 2.0 mi South 6.9 mph - 0.00 in Snow Light Snow
8:12 AM 10.0 °F -3.7 °F 8.1 °F 92% 30.24 in 4.0 mi South 10.4 mph - 0.00 in   Overcast
8:22 AM 10.9 °F -0.8 °F 8.1 °F 88% 30.24 in 4.0 mi South 8.1 mph - 0.00 in   Overcast
8:33 AM 10.9 °F -1.8 °F 9.0 °F 92% 30.23 in 5.0 mi South 9.2 mph - 0.00 in   Overcast
8:53 AM 12.9 °F 0.7 °F 9.0 °F 84% 30.34 in 10.0 mi South 9.2 mph - 0.00 in   Overcast
9:27 AM 14.0 °F -0.8 °F 9.0 °F 80% 30.22 in 10.0 mi South 13.8 mph - N/A   Partly Cloudy
9:53 AM 15.1 °F 3.3 °F 9.0 °F 77% 30.31 in 10.0 mi South 9.2 mph 17.3 mph N/A   Partly Cloudy
10:53 AM 19.0 °F 5.6 °F 10.9 °F 71% 30.28 in 10.0 mi South 13.8 mph 19.6 mph N/A   Partly Cloudy
11:53 AM 21.0 °F 8.1 °F 12.0 °F 68% 30.24 in 10.0 mi South 13.8 mph 19.6 mph N/A   Clear
12:53 PM 23.0 °F 10.6 °F 12.9 °F 65% 30.21 in 10.0 mi South 13.8 mph - N/A   Clear
1:53 PM 24.1 °F 12.0 °F 12.9 °F 62% 30.18 in 10.0 mi South 13.8 mph 20.7 mph N/A   Clear
2:53 PM 25.0 °F 11.7 °F 12.9 °F 60% 30.14 in 10.0 mi South 17.3 mph 24.2 mph N/A   Clear
3:53 PM 25.0 °F 13.1 °F 12.0 °F 58% 30.11 in 10.0 mi South 13.8 mph 21.9 mph N/A   Clear
4:53 PM 24.1 °F 13.1 °F 10.9 °F 57% 30.08 in 10.0 mi South 11.5 mph - N/A   Clear
5:53 PM 21.9 °F 11.0 °F 10.0 °F 60% 30.06 in 10.0 mi South 10.4 mph - N/A   Clear
6:53 PM 21.0 °F 9.9 °F 9.0 °F 60% 30.04 in 10.0 mi South 10.4 mph - N/A   Clear
7:53 PM 19.9 °F 9.3 °F 9.0 °F 62% 30.02 in 10.0 mi South 9.2 mph - N/A   Clear
8:53 PM 19.9 °F 8.6 °F 9.0 °F 62% 29.99 in 10.0 mi South 10.4 mph - N/A   Clear
9:53 PM 19.0 °F 6.8 °F 9.0 °F 65% 29.99 in 10.0 mi South 11.5 mph - N/A   Clear
10:53 PM 19.0 °F 7.5 °F 10.0 °F 68% 29.95 in 10.0 mi SSW 10.4 mph - N/A   Clear
11:53 PM 19.0 °F 9.0 °F 10.9 °F 71% 29.94 in 10.0 mi SW 8.1 mph - N/A   Clear